Location: ??????????
(48.4699°N, 37.9573°E)
Time: 09:01:43
(UTC+00:00)

Iridium 4 Rocket - Visible Passes

Search period start: 12 May 2021 00:00
Search period end: 22 May 2021 00:00
Orbit: 586 x 903 km, 86.9° (Epoch: 11 May)

Date Brightness Start Highest point End Pass type
(mag) Time Alt. Az. Time Alt. Az. Time Alt. Az.
12 May 5.3 17:29:10 10° ESE 17:33:07 19° ENE 17:37:07 10° NNE visible
12 May 3.9 19:07:40 16° S 19:12:21 79° W 19:18:19 10° N visible
12 May 6.2 20:50:11 10° W 20:53:20 15° WNW 20:56:31 10° NNW visible
13 May 4.0 18:24:05 13° SSE 18:29:11 55° E 18:34:57 10° N visible
13 May 5.5 20:04:34 10° SW 20:09:29 27° WNW 20:14:29 10° NNW visible
14 May 4.8 17:41:20 10° SE 17:46:15 29° E 17:51:13 10° NNE visible
14 May 4.5 19:20:15 10° SSW 19:25:54 52° W 19:31:41 10° N visible
15 May 3.8 18:36:43 10° S 18:42:34 83° E 18:48:30 10° N visible
15 May 6.1 20:19:16 10° WSW 20:23:16 19° WNW 20:27:18 10° NNW visible
16 May 4.3 17:53:59 10° SSE 17:59:29 43° E 18:05:01 10° NNE visible
16 May 5.2 19:34:13 10° SW 19:39:32 34° WNW 19:44:53 10° NNW visible
17 May 4.2 18:50:13 10° SSW 18:56:03 66° W 19:01:55 10° N visible
17 May 6.4 20:34:56 10° W 20:37:10 12° WNW 20:39:23 10° NW visible
18 May 3.9 18:07:00 10° S 18:12:49 66° E 18:18:37 10° N visible
18 May 5.9 19:48:39 10° SW 19:53:15 23° WNW 19:57:51 10° NNW visible
19 May 4.9 19:04:03 10° SSW 19:09:38 43° W 19:15:11 10° N visible
20 May 3.9 18:20:19 10° S 18:26:15 83° W 18:32:06 10° N visible
20 May 6.3 20:03:43 10° WSW 20:07:04 15° WNW 20:10:25 10° NNW visible
21 May 4.1 17:37:23 10° SSE 17:43:04 52° E 17:48:41 10° NNE visible
21 May 5.6 19:18:15 10° SW 19:23:17 29° WNW 19:28:17 10° NNW visible
